Location: St. Louis
(38.6270°N, 90.1994°W)
Time: 18:57:39
(UTC-05:00)

deb Delta - Pass Details

Date: 05 July 2022
Orbit: 1084 x 1202 km, 99.8° (Epoch: 13 August)

Event Time Altitude Azimuth Distance (km) Brightness Sun altitude
Exits shadow 00:07:55 - 94° (E) 3,246 ? -27.1°
Reaches altitude 10° 00:08:25 10° 91° (E) 3,137 ? -27.2°
Maximum altitude 00:12:30 16° 56° (NE) 2,679 ? -27.3°
Drops below altitude 10° 00:16:33 10° 21° (NNE) 3,124 ? -27.5°
Sets 00:20:16 0° 2° (N) 4,074 ? -27.7°
